When you browse on this site, cookies collect data to enhance your experience and personalize the content and advertising you see.
Visit our Privacy Policy to learn more. By continuing to use the site, you agree to this use of cookies and data.

Hourly Weather Orlyaki

Today, 10 July, Friday

Time Temperature Precipitation Wind Pressure Humidity
00:00 +10°C° 0 mm 2 mps 750 mmHg 90%
01:00 +9°C° 0 mm 2 mps 750 mmHg 92%
02:00 +10°C° 0 mm 1 mps 750 mmHg 93%
03:00 +10°C° 0 mm 1 mps 750 mmHg 92%
04:00 +10°C° 0 mm 2 mps 750 mmHg 90%
05:00 +10°C° 0 mm 2 mps 750 mmHg 89%
06:00 +13°C° 0 mm 2 mps 750 mmHg 83%
07:00 +14°C° 0 mm 3 mps 750 mmHg 77%
08:00 +17°C° 0 mm 3 mps 750 mmHg 71%
09:00 +18°C° 0.2 mm 4 mps 750 mmHg 69%
10:00 +19°C° 0.2 mm 4 mps 750 mmHg 68%
11:00 +20°C° 0.2 mm 5 mps 749 mmHg 66%
12:00 +19°C° 0.4 mm 4 mps 749 mmHg 75%
13:00 +18°C° 0.4 mm 4 mps 749 mmHg 83%
14:00 +17°C° 0.4 mm 3 mps 748 mmHg 92%
15:00 +17°C° 0.5 mm 3 mps 748 mmHg 91%
16:00 +18°C° 0.5 mm 4 mps 748 mmHg 91%
17:00 +18°C° 0.5 mm 4 mps 747 mmHg 91%
18:00 +18°C° 0.6 mm 4 mps 747 mmHg 92%
19:00 +18°C° 0.6 mm 4 mps 747 mmHg 93%
20:00 +17°C° 0.6 mm 5 mps 746 mmHg 94%
21:00 +17°C° 0.6 mm 5 mps 746 mmHg 95%
22:00 +18°C° 0.6 mm 4 mps 746 mmHg 96%
23:00 +18°C° 0.6 mm 4 mps 746 mmHg 96%

Tomorrow, 11 July, Saturday

Time Temperature Precipitation Wind Pressure Humidity
00:00 +18°C° 0.1 mm 4 mps 746 mmHg 97%
01:00 +19°C° 0.1 mm 4 mps 746 mmHg 97%
02:00 +19°C° 0.1 mm 4 mps 746 mmHg 97%
03:00 +19°C° 0 mm 4 mps 746 mmHg 97%
04:00 +19°C° 0 mm 5 mps 746 mmHg 97%
05:00 +19°C° 0 mm 5 mps 746 mmHg 97%
06:00 +20°C° 0.3 mm 5 mps 746 mmHg 95%
07:00 +20°C° 0.3 mm 5 mps 746 mmHg 94%
08:00 +21°C° 0.3 mm 6 mps 746 mmHg 93%
09:00 +22°C° 0 mm 5 mps 746 mmHg 91%
10:00 +22°C° 0 mm 5 mps 747 mmHg 88%
11:00 +23°C° 0 mm 5 mps 747 mmHg 86%
12:00 +25°C° 0.1 mm 5 mps 747 mmHg 80%
13:00 +25°C° 0.1 mm 5 mps 748 mmHg 73%
14:00 +26°C° 0.1 mm 6 mps 748 mmHg 67%
15:00 +25°C° 0 mm 5 mps 748 mmHg 65%
16:00 +25°C° 0 mm 5 mps 748 mmHg 62%
17:00 +23°C° 0 mm 4 mps 749 mmHg 59%
18:00 +21°C° 0 mm 3 mps 749 mmHg 66%
19:00 +19°C° 0 mm 3 mps 749 mmHg 72%
20:00 +17°C° 0 mm 2 mps 749 mmHg 78%
21:00 +16°C° 0 mm 2 mps 749 mmHg 81%
22:00 +15°C° 0 mm 2 mps 749 mmHg 83%
23:00 +14°C° 0 mm 2 mps 750 mmHg 86%

Day after tomorrow, 12 July, Sunday

Time Temperature Precipitation Wind Pressure Humidity
00:00 +14°C° 0 mm 2 mps 750 mmHg 85%
01:00 +14°C° 0 mm 2 mps 750 mmHg 85%
02:00 +14°C° 0 mm 1 mps 750 mmHg 84%
03:00 +14°C° 0 mm 2 mps 750 mmHg 84%
04:00 +14°C° 0 mm 2 mps 750 mmHg 83%
05:00 +14°C° 0 mm 2 mps 750 mmHg 83%
06:00 +14°C° 0.2 mm 2 mps 750 mmHg 84%
07:00 +14°C° 0.2 mm 2 mps 750 mmHg 85%
08:00 +14°C° 0.2 mm 2 mps 750 mmHg 87%
09:00 +14°C° 0.7 mm 2 mps 750 mmHg 90%
10:00 +13°C° 0.7 mm 2 mps 750 mmHg 93%
11:00 +13°C° 0.7 mm 2 mps 750 mmHg 96%
12:00 +13°C° 0.2 mm 2 mps 750 mmHg 96%
13:00 +13°C° 0.2 mm 2 mps 750 mmHg 96%
14:00 +13°C° 0.2 mm 2 mps 750 mmHg 95%
15:00 +13°C° 0.2 mm 2 mps 750 mmHg 95%
16:00 +13°C° 0.2 mm 2 mps 750 mmHg 95%
17:00 +13°C° 0.2 mm 2 mps 750 mmHg 95%
18:00 +13°C° 1 mm 2 mps 750 mmHg 95%
19:00 +12°C° 1 mm 2 mps 750 mmHg 96%
20:00 +12°C° 1 mm 2 mps 750 mmHg 97%
21:00 +12°C° 0.6 mm 2 mps 749 mmHg 97%
22:00 +12°C° 0.6 mm 2 mps 749 mmHg 97%
23:00 +12°C° 0.6 mm 2 mps 749 mmHg 97%

13 July, Monday

Time Temperature Precipitation Wind Pressure Humidity
00:00 +12°C° 0.7 mm 2 mps 749 mmHg 97%
01:00 +12°C° 0.7 mm 2 mps 748 mmHg 98%
02:00 +12°C° 0.7 mm 2 mps 748 mmHg 98%
03:00 +12°C° 0.9 mm 2 mps 748 mmHg 98%
04:00 +12°C° 0.9 mm 1 mps 748 mmHg 98%
05:00 +12°C° 0.9 mm 1 mps 747 mmHg 98%
06:00 +12°C° 0.4 mm 2 mps 747 mmHg 96%
07:00 +13°C° 0.4 mm 2 mps 747 mmHg 94%
08:00 +13°C° 0.4 mm 3 mps 747 mmHg 92%
09:00 +14°C° 0 mm 3 mps 747 mmHg 85%
10:00 +16°C° 0 mm 3 mps 747 mmHg 78%
11:00 +18°C° 0 mm 3 mps 747 mmHg 71%
12:00 +18°C° 0.1 mm 3 mps 747 mmHg 67%
13:00 +19°C° 0.1 mm 3 mps 746 mmHg 63%
14:00 +20°C° 0.1 mm 3 mps 746 mmHg 58%
15:00 +20°C° 0 mm 3 mps 746 mmHg 60%
16:00 +20°C° 0 mm 3 mps 746 mmHg 61%
17:00 +20°C° 0 mm 3 mps 745 mmHg 62%
18:00 +19°C° 0 mm 3 mps 745 mmHg 70%
19:00 +17°C° 0 mm 2 mps 745 mmHg 77%
20:00 +15°C° 0 mm 2 mps 745 mmHg 85%
21:00 +15°C° 0 mm 2 mps 745 mmHg 88%
22:00 +14°C° 0 mm 2 mps 745 mmHg 91%
23:00 +13°C° 0 mm 2 mps 744 mmHg 94%

14 July, Tuesday

Time Temperature Precipitation Wind Pressure Humidity
00:00 +12°C° 0 mm 2 mps 744 mmHg 94%
01:00 +11°C° 0 mm 3 mps 744 mmHg 94%
02:00 +11°C° 0 mm 3 mps 744 mmHg 94%
03:00 +11°C° 0 mm 3 mps 744 mmHg 91%
04:00 +11°C° 0 mm 3 mps 744 mmHg 87%
05:00 +11°C° 0 mm 3 mps 744 mmHg 84%
06:00 +13°C° 0 mm 4 mps 744 mmHg 79%
07:00 +14°C° 0 mm 4 mps 744 mmHg 74%
08:00 +17°C° 0 mm 4 mps 744 mmHg 69%
09:00 +18°C° 0 mm 4 mps 744 mmHg 65%
10:00 +19°C° 0 mm 5 mps 744 mmHg 61%
11:00 +20°C° 0 mm 5 mps 744 mmHg 56%
12:00 +21°C° 0.1 mm 5 mps 744 mmHg 57%
13:00 +21°C° 0.1 mm 5 mps 744 mmHg 58%
14:00 +21°C° 0.1 mm 5 mps 744 mmHg 59%
15:00 +21°C° 0.1 mm 5 mps 744 mmHg 59%
16:00 +21°C° 0.1 mm 4 mps 744 mmHg 58%
17:00 +21°C° 0.1 mm 4 mps 744 mmHg 58%
18:00 +19°C° 0 mm 4 mps 744 mmHg 62%
19:00 +17°C° 0 mm 3 mps 745 mmHg 66%
20:00 +14°C° 0 mm 3 mps 745 mmHg 70%
21:00 +13°C° 0 mm 3 mps 745 mmHg 71%
22:00 +12°C° 0 mm 3 mps 745 mmHg 73%
23:00 +12°C° 0 mm 2 mps 745 mmHg 74%

15 July, Wednesday

Time Temperature Precipitation Wind Pressure Humidity
00:00 +12°C° 0 mm 2 mps 746 mmHg 76%
01:00 +10°C° 0 mm 2 mps 746 mmHg 78%
02:00 +9°C° 0 mm 2 mps 746 mmHg 80%
03:00 +10°C° 0 mm 2 mps 746 mmHg 83%
04:00 +10°C° 0 mm 2 mps 746 mmHg 86%
05:00 +10°C° 0 mm 2 mps 747 mmHg 89%
06:00 +13°C° 0 mm 2 mps 747 mmHg 81%
07:00 +15°C° 0 mm 2 mps 747 mmHg 73%
08:00 +17°C° 0 mm 3 mps 747 mmHg 65%
09:00 +18°C° 0 mm 3 mps 747 mmHg 61%
10:00 +20°C° 0 mm 3 mps 747 mmHg 57%
11:00 +21°C° 0 mm 4 mps 747 mmHg 53%
12:00 +22°C° 0.1 mm 4 mps 747 mmHg 53%
13:00 +22°C° 0.1 mm 4 mps 747 mmHg 54%
14:00 +24°C° 0.1 mm 3 mps 747 mmHg 54%
15:00 +22°C° 0.2 mm 3 mps 747 mmHg 58%
16:00 +22°C° 0.2 mm 3 mps 747 mmHg 63%
17:00 +21°C° 0.2 mm 3 mps 747 mmHg 68%
18:00 +20°C° 0.1 mm 2 mps 747 mmHg 74%
19:00 +18°C° 0.1 mm 2 mps 747 mmHg 80%
20:00 +18°C° 0.1 mm 1 mps 747 mmHg 86%
21:00 +16°C° 0 mm 1 mps 747 mmHg 88%
22:00 +15°C° 0 mm 1 mps 748 mmHg 91%
23:00 +14°C° 0 mm 1 mps 748 mmHg 93%
Show more